Weather History for KBWD - August, 2013

Change the Weather History Date:

Tuesday, August 27, 2013

  Actual Average (KABI) Record (KABI)
Temperature  
Mean Temperature 74 °F 81 °F  
Max Temperature 80 °F 93 °F 104 °F (2011)
Min Temperature 69 °F 70 °F 59 °F (1906)
Degree Days  
Heating Degree Days 0 0  
Month to date heating degree days 0  
Since 1 June heating degree days 1  
Since 1 July heating degree days 0  
Cooling Degree Days 10 16  
Month to date cooling degree days 490  
Year to date cooling degree days 1883  
Since 1 June cooling degree days 1486  
Growing Degree Days 24 (Base 50)    
Moisture  
Dew Point 70 °F    
Average Humidity 86    
Maximum Humidity 100    
Minimum Humidity 69    
Precipitation  
Precipitation 0.28 in 0.09 in 1.18 in (1923)
Month to date precipitation 2.23  
Year to date precipitation 16.60  
Sea Level Pressure  
Sea Level Pressure 30.10 in    
Wind  
Wind Speed 6 mph (SE)    
Max Wind Speed 15 mph    
Max Gust Speed 25 mph    
Visibility 8 miles    
Events Fog , Rain , Thunderstorm    
T = Trace of Precipitation, MM = Missing Value Source: NWS Daily Summary

Daily Weather History Graph

Daily Weather History Graph

Search for Another Location

Airport or City:

Trip Planner

Search our weather history database for the weather conditions in past years. The results will help you decide how hot, cold, wet, or windy it might be!

Date:

Astronomy

Aug. 27, 2013 Rise Set
Actual Time 7:08 AM CDT 8:05 PM CDT
Civil Twilight 6:43 AM CDT 8:30 PM CDT
Nautical Twilight 6:13 AM CDT 9:00 PM CDT
Astronomical Twilight 5:43 AM CDT 9:30 PM CDT
Moon No Moon Rise 1:40 PM CDT (8/27)
Length of Visible Light 13h 47m
Length of Day
12h 57m
Waning Gibbous, 57% of the Moon is Illuminated
Aug 27
Waning Gibbous
Aug 28
Last Quarter
Sep 5
New
Sep 12
First Quarter
Sep 19
Full

Hourly Weather History & Observations

Time (CDT) Temp. Heat Index Dew Point Humidity Pressure Visibility Wind Dir Wind Speed Gust Speed Precip Events Conditions
12:15 AM 77.0 °F - 66.2 °F 69% 30.10 in 10.0 mi ESE 4.6 mph - N/A   Clear
12:35 AM 77.0 °F - 66.2 °F 69% 30.09 in 10.0 mi SE 5.8 mph - N/A   Clear
12:55 AM 75.2 °F - 66.2 °F 73% 30.09 in 10.0 mi SE 3.5 mph - N/A   Clear
1:15 AM 75.2 °F - 66.2 °F 73% 30.08 in 10.0 mi SE 4.6 mph - N/A   Clear
1:35 AM 75.2 °F - 66.2 °F 73% 30.08 in 10.0 mi Calm Calm - N/A   Clear
1:55 AM 73.4 °F - 66.2 °F 78% 30.08 in 10.0 mi ESE 3.5 mph - N/A   Clear
2:15 AM 73.4 °F - 66.2 °F 78% 30.08 in 10.0 mi SE 4.6 mph - N/A   Clear
2:35 AM 73.4 °F - 66.2 °F 78% 30.09 in 10.0 mi SE 5.8 mph - N/A   Clear
2:55 AM 73.4 °F - 68.0 °F 83% 30.09 in 10.0 mi SSE 5.8 mph - N/A   Partly Cloudy
3:15 AM 73.4 °F - 68.0 °F 83% 30.09 in 10.0 mi SSE 8.1 mph - N/A   Scattered Clouds
3:35 AM 73.4 °F - 68.0 °F 83% 30.09 in 10.0 mi SSE 5.8 mph - N/A   Overcast
3:55 AM 73.4 °F - 68.0 °F 83% 30.09 in 10.0 mi SSE 8.1 mph - N/A   Overcast
4:15 AM 73.4 °F - 68.0 °F 83% 30.09 in 10.0 mi SE 8.1 mph - N/A   Overcast
4:35 AM 73.4 °F - 68.0 °F 83% 30.09 in 10.0 mi SE 4.6 mph - N/A   Overcast
4:55 AM 73.4 °F - 68.0 °F 83% 30.09 in 10.0 mi SE 6.9 mph - N/A   Overcast
5:15 AM 73.4 °F - 68.0 °F 83% 30.09 in 10.0 mi SSE 8.1 mph - N/A   Overcast
5:35 AM 73.4 °F - 68.0 °F 83% 30.09 in 10.0 mi SE 5.8 mph - N/A   Overcast
5:55 AM 73.4 °F - 66.2 °F 78% 30.09 in 10.0 mi ESE 5.8 mph - N/A   Mostly Cloudy
6:15 AM 71.6 °F - 66.2 °F 83% 30.10 in 10.0 mi SE 4.6 mph - N/A   Mostly Cloudy
6:35 AM 73.4 °F - 66.2 °F 78% 30.10 in 10.0 mi SE 5.8 mph - N/A   Overcast
6:55 AM 73.4 °F - 68.0 °F 83% 30.10 in 10.0 mi SE 6.9 mph - N/A   Overcast
7:15 AM 73.4 °F - 68.0 °F 83% 30.11 in 10.0 mi SSE 9.2 mph - N/A   Mostly Cloudy
7:35 AM 73.4 °F - 68.0 °F 83% 30.11 in 8.0 mi SSE 6.9 mph - N/A   Clear
7:55 AM 73.4 °F - 68.0 °F 83% 30.12 in 10.0 mi SE 9.2 mph - N/A   Clear
8:15 AM 73.4 °F - 68.0 °F 83% 30.12 in 10.0 mi SE 10.4 mph 18.4 mph N/A   Clear
8:35 AM 73.4 °F - 68.0 °F 83% 30.13 in 10.0 mi SE 10.4 mph - N/A   Unknown
8:55 AM 73.4 °F - 69.8 °F 88% 30.13 in 9.0 mi SE 12.7 mph - N/A   Unknown
9:15 AM 73.4 °F - 69.8 °F 88% 30.14 in 2.0 mi SE 8.1 mph - N/A Rain Light Rain
9:35 AM 71.6 °F - 71.6 °F 100% 30.14 in 3.0 mi SE 11.5 mph 16.1 mph N/A Rain Light Rain
9:55 AM 71.6 °F - 71.6 °F 100% 30.15 in 1.2 mi SE 12.7 mph 16.1 mph N/A Rain Light Rain
10:15 AM 71.6 °F - 69.8 °F 94% 30.15 in 0.8 mi SSE 13.8 mph 18.4 mph N/A   Mist
10:35 AM 71.6 °F - 68.0 °F 88% 30.15 in 0.5 mi SE 15.0 mph 20.7 mph N/A Fog Fog
10:55 AM 69.8 °F - 68.0 °F 94% 30.16 in 0.5 mi SE 13.8 mph - 0.01 in Fog Fog
11:15 AM 69.8 °F - 68.0 °F 94% 30.16 in 1.8 mi SE 12.7 mph 18.4 mph N/A   Clear
11:35 AM 71.6 °F - 69.8 °F 94% 30.16 in 2.0 mi SE 12.7 mph - N/A   Clear
11:55 AM 71.6 °F - 69.8 °F 94% 30.15 in 2.5 mi SE 9.2 mph - N/A Rain Light Rain
12:15 PM 71.6 °F - 69.8 °F 94% 30.16 in 1.8 mi South 11.5 mph 16.1 mph N/A Rain Light Rain
12:35 PM 71.6 °F - 71.6 °F 100% 30.16 in 2.0 mi South 11.5 mph 18.4 mph N/A Rain Light Rain
12:55 PM 71.6 °F - 69.8 °F 94% 30.14 in 5.0 mi South 8.1 mph - 0.01 in Rain Light Rain
1:15 PM 73.4 °F - 71.6 °F 94% 30.14 in 3.0 mi South 5.8 mph - N/A Rain Light Rain
1:35 PM 73.4 °F - 71.6 °F 94% 30.14 in 5.0 mi South 5.8 mph - 0.01 in Rain Light Rain
1:55 PM 73.4 °F - 71.6 °F 94% 30.14 in 8.0 mi South 5.8 mph - 0.01 in Rain Light Rain
2:15 PM 75.2 °F - 71.6 °F 89% 30.14 in 10.0 mi South 8.1 mph - N/A   Unknown
2:35 PM 77.0 °F - 71.6 °F 83% 30.13 in 10.0 mi South 4.6 mph - N/A   Unknown
2:55 PM 77.0 °F - 71.6 °F 83% 30.13 in 9.0 mi SSW 5.8 mph - N/A   Clear
3:15 PM 78.8 °F - 71.6 °F 78% 30.11 in 10.0 mi South 3.5 mph - N/A   Clear
3:35 PM 78.8 °F - 69.8 °F 74% 30.10 in 7.0 mi SSW 5.8 mph - N/A   Clear
3:55 PM 80.6 °F 83.9 °F 69.8 °F 70% 30.10 in 10.0 mi SE 8.1 mph - N/A Thunderstorm Clear
4:15 PM 77.0 °F - 73.4 °F 89% 30.10 in 7.0 mi ESE 9.2 mph - N/A Thunderstorm Partly Cloudy
4:35 PM 80.6 °F 84.6 °F 71.6 °F 74% 30.10 in 10.0 mi SE 10.4 mph - N/A Thunderstorm Thunderstorm
4:55 PM 75.2 °F - 71.6 °F 89% 30.12 in 0.5 mi SSW 10.4 mph 25.3 mph 0.08 in Rain , Thunderstorm Heavy Rain
5:15 PM 73.4 °F - 71.6 °F 94% 30.10 in 1.2 mi Calm Calm - 0.16 in Rain , Thunderstorm Heavy Rain
5:35 PM 73.4 °F - 71.6 °F 94% 30.09 in 8.0 mi ESE 3.5 mph - 0.16 in Rain Light Rain
5:55 PM 73.4 °F - 71.6 °F 94% 30.09 in 10.0 mi SE 5.8 mph - 0.17 in   Unknown
6:15 PM 75.2 °F - 71.6 °F 89% 30.08 in 10.0 mi East 4.6 mph - N/A   Unknown
6:35 PM 75.2 °F - 71.6 °F 89% 30.07 in 10.0 mi SE 3.5 mph - N/A   Unknown
6:55 PM 77.0 °F - 71.6 °F 83% 30.06 in 10.0 mi SE 5.8 mph - N/A   Clear
7:15 PM 77.0 °F - 71.6 °F 83% 30.06 in 10.0 mi SE 4.6 mph - N/A   Clear
7:35 PM 77.0 °F - 73.4 °F 89% 30.06 in 10.0 mi SE 4.6 mph - N/A   Clear
7:55 PM 75.2 °F - 73.4 °F 94% 30.06 in 10.0 mi SE 3.5 mph - N/A   Clear
8:15 PM 75.2 °F - 73.4 °F 94% 30.06 in 10.0 mi SE 5.8 mph - N/A   Clear
8:35 PM 75.2 °F - 71.6 °F 89% 30.06 in 10.0 mi SE 6.9 mph - N/A   Clear
8:55 PM 75.2 °F - 69.8 °F 83% 30.07 in 10.0 mi SSE 5.8 mph - N/A   Clear
9:15 PM 75.2 °F - 69.8 °F 83% 30.07 in 10.0 mi North - - N/A   Clear
9:35 PM 73.4 °F - 69.8 °F 88% 30.08 in 10.0 mi North - - N/A   Mostly Cloudy
9:55 PM 73.4 °F - 69.8 °F 88% 30.08 in 10.0 mi North - - N/A   Scattered Clouds
10:15 PM 73.4 °F - 71.6 °F 94% 30.08 in 10.0 mi North - - N/A   Clear
10:35 PM 73.4 °F - 71.6 °F 94% 30.09 in 10.0 mi Calm Calm - N/A   Clear
10:55 PM 73.4 °F - 71.6 °F 94% 30.09 in 10.0 mi SE 3.5 mph - N/A   Scattered Clouds
11:15 PM 73.4 °F - 71.6 °F 94% 30.09 in 10.0 mi SE 6.9 mph - N/A   Partly Cloudy
11:35 PM 73.4 °F - 69.8 °F 88% 30.09 in 10.0 mi SE 5.8 mph - N/A   Clear
11:55 PM 73.4 °F - 69.8 °F 88% 30.09 in 10.0 mi South 4.6 mph - N/A   Clear